Regional Weather Roundup
Issued by NWS

Home | Current Version | Previous Version | Text Only | Print | Product List | Glossary Off
Versions: 1 2 3 4 5 6 7 8 9 10 11 12 13 14 15 16 17 18 19 20 21 22 23 24 25 26 27 28 29 30 31 32 33 34 35 36 37 38 39 40 41 42 43 44 45 46 47 48 49 50

202
ASUS43 KMKX 231910
RWRWI

WISCONSIN REGIONAL WEATHER ROUNDUP
NATIONAL WEATHER SERVICE MILWAUKEE/SULLIVAN WI
200 PM CDT MON APR 23 2018

NOTE: "FAIR" INDICATES FEW OR NO CLOUDS BELOW 12,000 FEET WITH NO
SIGNIFICANT WEATHER AND/OR OBSTRUCTIONS TO VISIBILITY.

WIZ001-002-006>008-014>016-023>028-232000-
NORTHWEST WISCONSIN

CITY           SKY/WX    TMP DP  RH WIND       PRES   REMARKS
SUPERIOR ARPT  FAIR      66  37  34 SW10      30.16F
ASHLAND        FAIR      63  33  32 W9        30.17F
HAYWARD        FAIR      64  32  30 MISG      30.18F
SIREN          FAIR      66  29  25 S7        30.18F
CUMBERLAND     FAIR      59  30  33 CALM      30.20F
RICE LAKE      FAIR      62  32  32 S3        30.21F
CHETEK         FAIR      63  33  32 N5        30.19F
LADYSMITH      FAIR      63  31  29 S3        30.21F
EAU CLAIRE     FAIR      66  29  24 VRB5      30.18F
MENOMONIE      FAIR      66  28  24 SW6       30.19F
NEW RICHMOND   FAIR      66  30  26 W6        30.18F
OSCEOLA        FAIR      67  32  27 W7        30.21F
$$

WIZ003>005-009-010-017-018-232000-
NORTH CENTRAL WISCONSIN

CITY           SKY/WX    TMP DP  RH WIND       PRES   REMARKS
MANITOWISH WTR FAIR      58  28  31 S5        30.18F
ARBOR VITAE    FAIR      59  25  26 W3        30.19F
WOODRUFF       FAIR      59  25  26 W3        30.19F
RHINELANDER    FAIR      61  27  27 CALM      30.20F
EAGLE RIVER    FAIR      59  24  26 W3        30.19F
LAND O LAKES   FAIR      61  24  23 CALM      30.20F
PHILLIPS       FAIR      60  30  32 S3        30.19F
TOMAHAWK       FAIR      60  25  26 CALM      30.20F
MEDFORD        FAIR      57  29  34 CALM      30.20F
MERRILL        FAIR      61  25  25 CALM      30.21F
$$

WIZ029-030-035-036-043>047-232000-
CENTRAL WISCONSIN

CITY           SKY/WX    TMP DP  RH WIND       PRES   REMARKS
WAUSAU         FAIR      62  23  22 VRB3      30.18F
MOSINEE        MOSUNNY   61  25  25 VRB5      30.20F
MARSHFIELD     FAIR      60  30  32 SE6       30.19F
STEVENS POINT  FAIR      59  25  27 S5        30.21F
WAUPACA        FAIR      64  23  21 CALM      30.21F
WAUTOMA        NOT AVBL
WISC RAPIDS    FAIR      64  25  22 CALM      30.20F
CAMP DOUGLAS   NOT AVBL
$$

WIZ011>013-019>022-031-037>040-048>050-232000-
NORTHEAST WISCONSIN

CITY           SKY/WX    TMP DP  RH WIND       PRES   REMARKS
ANTIGO         FAIR      58  27  31 N3        30.21S
SHAWANO        FAIR      61  26  26 NE5       30.21F
OCONTO         FAIR      59  25  27 SE7       30.21F
STURGEON BAY   NOT AVBL
GREEN BAY      FAIR      62  30  29 VRB6      30.21F
MANITOWOC      FAIR      61  27  27 E9        30.21F
APPLETON       SUNNY     61  25  25 NE6       30.19F
CLINTONVILLE   FAIR      60  21  23 CALM      30.22F
OSHKOSH        FAIR      59  33  37 NE9       30.20F
$$

WIZ032>034-041-042-053>061-232000-
SOUTHWEST WISCONSIN

CITY           SKY/WX    TMP DP  RH WIND       PRES   REMARKS
LA CROSSE      FAIR      67  29  24 NW9       30.17F
SPARTA         FAIR      67  27  21 E10       30.18F
VIROQUA        FAIR      63  33  31 N7        30.17F
BOSCOBEL       FAIR      69  26  20 VRB6      30.16F
PRAIRIE DU CHI FAIR      67  22  17 NE6       30.15F
PLATTEVILLE    FAIR      66  25  21 NE13G18   30.15F
$$

WIZ056-057-062-063-064-067-068-232000-
SOUTH CENTRAL WISCONSIN

CITY           SKY/WX    TMP DP  RH WIND       PRES   REMARKS
REEDSBURG      FAIR      65  28  24 E9        30.17F
BARABOO/DELLS  FAIR      64  23  20 E9        30.17F
LONE ROCK      FAIR      67  26  21 E13       30.16F
MINERAL POINT  FAIR      64  23  20 NE8       30.15F
MADISON        PTSUNNY   65  29  25 NE8G20    30.16F
MIDDLETON      FAIR      65  27  24 NE9       30.17F
WATERTOWN      FAIR      64  25  22 E10       30.16F
MONROE         FAIR      64  21  19 NE13      30.14F
JANESVILLE     MOSUNNY   70  23  17 E13G18    30.15F
$$

WIZ051-052-058>065-066-070>072-232000-
SOUTHEAST WISCONSIN

CITY           SKY/WX    TMP DP  RH WIND       PRES   REMARKS
MILWAUKEE      PTSUNNY   57  29  34 N15       30.18F
WAUKESHA       SUNNY     61  25  25 E13       30.18F
MILWAUKEE/TIMM SUNNY     61  14  16 NE14      30.20S
RACINE         FAIR      57  30  35 N14       30.19F
BURLINGTON     FAIR      64  24  21 E10G17    30.16F
KENOSHA        FAIR      64  26  23 NE16      30.16F
FOND DU LAC    FAIR      60  32  34 NE12      30.19F
SHEBOYGAN      FAIR      59  28  30 NE12      30.19F
WEST BEND      FAIR      61  19  20 NE12      30.18F
JUNEAU         FAIR      63  26  25 E8        30.19F
$$

LSZ147-162-232000-
LAKE SUPERIOR

STATION/POSITION TIME  TEMP    WIND        PRES    WAVE
                       AIR SEA DIR/SP/G            HT/PER
                 (UTC) (F)     (DEG/KT/KT) (MB)    (FT/S)
DEVILS ISLAND    1900   52     240/ 17/ 18 1021.5F
SAXON HARBOR     1840   51      60/  7/  8 1021.0F
$$

LMZ867-665-643>646-232000-
LAKE MICHIGAN

STATION/POSITION TIME  TEMP    WIND        PRES    WAVE
                       AIR SEA DIR/SP/G            HT/PER
                 (UTC) (F)     (DEG/KT/KT) (MB)    (FT/S)
NORTHPORT PIER   1840   38                 1023.4F
KEWAUNEE LAKESHO 1842   49      40/  5/  5 1022.6F
SHEBOYGAN LAKESH 1900   42     360/ 12/ 12 1022.9F
PORT WASHINGTON  1840   49      40/  9/ 11 1023.4F
MILWAUKEE LAKESH 1850   49      20/ 14/ 16   N/A
KENOSHA   LAKESH 1900   45                 1021.3
$$

TC  - TEMPERATURE IN CELSIUS
VSB - VISIBILITY IN STATUTE MILES
WCI - WIND CHILL INDEX
HX  - HEAT INDEX





USA.gov is the U.S. government's official web portal to all federal, state and local government web resources and services.